Total_Precipitation_Accumulation
0.00 0.00 0.04 0.03 0.01 0.01 0.01 0.02 0.04 0.06 0.09 0.10 0.09 0.09 0.09 0.07 0.07 0.07 0.04 0.03 0.02 0.02 0.05 0.06 0.08 0.08 0.07 0.07 0.07 0.04 0.03 0.02 0.01 0.02 0.03 0.03 0.03 0.06 0.07 0.09 0.17 0.13 0.06
0.00 0.00 0.03 0.02 0.01 0.01 0.02 0.03 0.04 0.03 0.05 0.08 0.09 0.12 0.12 0.08 0.07 0.07 0.05 0.03 0.02 0.02 0.04 0.05 0.04 0.05 0.06 0.06 0.05 0.02 0.01 0.01 0.01 0.02 0.03 0.02 0.04 0.06 0.06 0.08 0.19 0.10 0.04
0.00 0.01 0.02 0.02 0.01 0.01 0.02 0.03 0.04 0.03 0.03 0.04 0.07 0.10 0.12 0.14 0.11 0.07 0.04 0.03 0.03 0.02 0.02 0.02 0.02 0.03 0.03 0.03 0.02 0.01 0.01 0.01 0.02 0.03 0.07 0.06 0.02 0.06 0.08 0.07 0.07 0.03 0.03
0.00 0.00 0.01 0.01 0.01 0.01 0.02 0.03 0.05 0.05 0.03 0.04 0.10 0.11 0.10 0.11 0.10 0.08 0.08 0.06 0.05 0.03 0.02 0.02 0.02 0.02 0.02 0.01 0.01 0.00 0.00 0.01 0.02 0.05 0.21 0.18 0.05 0.04 0.07 0.05 0.04 0.03 0.03
0.00 0.00 0.01 0.01 0.01 0.01 0.02 0.03 0.05 0.07 0.06 0.07 0.10 0.11 0.08 0.09 0.10 0.10 0.11 0.12 0.09 0.05 0.03 0.02 0.02 0.02 0.02 0.01 0.00 0.00 0.01 0.01 0.03 0.07 0.15 0.16 0.14 0.08 0.07 0.08 0.08 0.09 0.06
0.00 0.00 0.01 0.01 0.01 0.01 0.01 0.02 0.03 0.06 0.07 0.08 0.10 0.10 0.10 0.12 0.11 0.08 0.10 0.11 0.09 0.05 0.04 0.05 0.04 0.03 0.02 0.01 0.01 0.01 0.01 0.02 0.03 0.04 0.06 0.08 0.18 0.15 0.11 0.18 0.24 0.25 0.20
0.00 0.00 0.01 0.01 0.01 0.01 0.01 0.01 0.02 0.03 0.04 0.06 0.09 0.11 0.10 0.11 0.11 0.10 0.08 0.07 0.05 0.03 0.04 0.09 0.11 0.10 0.07 0.05 0.04 0.04 0.03 0.04 0.03 0.04 0.05 0.09 0.15 0.12 0.15 0.32 0.48 0.47 0.39
0.00 0.01 0.01 0.02 0.01 0.01 0.01 0.01 0.02 0.02 0.03 0.03 0.05 0.07 0.06 0.04 0.04 0.04 0.05 0.05 0.03 0.03 0.06 0.09 0.09 0.12 0.15 0.12 0.08 0.07 0.07 0.06 0.05 0.06 0.08 0.11 0.10 0.11 0.24 0.42 0.57 0.58 0.55
0.00 0.00 0.01 0.01 0.01 0.01 0.01 0.01 0.01 0.02 0.02 0.02 0.02 0.02 0.02 0.02 0.02 0.02 0.03 0.03 0.02 0.03 0.05 0.06 0.06 0.07 0.11 0.12 0.10 0.08 0.07 0.08 0.09 0.12 0.12 0.21 0.25 0.29 0.42 0.56 0.66 0.67 0.64
0.01 0.00 0.01 0.01 0.02 0.02 0.01 0.01 0.01 0.02 0.02 0.02 0.02 0.02 0.02 0.02 0.02 0.03 0.04 0.05 0.05 0.06 0.07 0.08 0.07 0.08 0.11 0.12 0.13 0.13 0.12 0.08 0.05 0.06 0.18 0.21 0.27 0.48 0.70 0.81 0.86 0.88 0.81
0.03 0.02 0.01 0.01 0.02 0.02 0.01 0.01 0.02 0.02 0.02 0.02 0.02 0.02 0.03 0.03 0.06 0.09 0.10 0.16 0.17 0.20 0.22 0.23 0.21 0.19 0.18 0.17 0.23 0.31 0.23 0.11 0.07 0.08 0.11 0.14 0.24 0.53 0.84 0.95 1.04 1.10 1.04
0.06 0.04 0.03 0.02 0.02 0.02 0.02 0.04 0.05 0.05 0.07 0.04 0.07 0.10 0.10 0.14 0.14 0.10 0.15 0.32 0.50 0.62 0.60 0.60 0.58 0.46 0.41 0.42 0.84 0.88 0.29 0.18 0.15 0.13 0.17 0.21 0.36 0.66 1.02 1.04 1.09 1.22 1.21
0.13 0.07 0.06 0.05 0.04 0.04 0.06 0.07 0.07 0.09 0.14 0.10 0.11 0.17 0.24 0.25 0.19 0.15 0.21 0.35 0.52 0.65 0.76 1.02 1.07 0.84 0.90 0.89 0.99 0.83 0.30 0.29 0.32 0.34 0.44 0.53 0.71 0.98 1.27 1.23 1.12 1.14 1.17
0.19 0.13 0.10 0.09 0.12 0.12 0.10 0.13 0.13 0.14 0.17 0.18 0.23 0.29 0.35 0.42 0.38 0.33 0.39 0.45 0.61 0.69 0.93 1.04 1.13 1.01 0.90 0.84 0.85 0.71 0.57 0.59 0.59 0.72 0.85 0.70 0.85 1.11 1.51 1.52 1.29 1.23 1.14
0.39 0.32 0.26 0.21 0.34 0.32 0.24 0.25 0.21 0.22 0.24 0.24 0.29 0.36 0.44 0.50 0.49 0.53 0.62 0.68 0.59 0.71 0.94 1.10 1.04 1.18 1.20 1.08 0.90 0.85 0.80 0.80 0.82 0.91 1.09 0.99 1.05 1.11 1.33 1.55 1.54 1.44 1.34
0.34 0.39 0.41 0.44 0.53 0.52 0.44 0.45 0.43 0.41 0.42 0.39 0.43 0.51 0.59 0.59 0.67 0.75 0.81 0.89 0.77 0.81 0.99 1.17 1.09 1.32 1.25 1.25 0.99 0.93 0.84 0.82 0.80 0.79 0.88 0.96 0.92 0.91 1.02 1.35 1.59 1.59 1.53
0.43 0.51 0.56 0.61 0.77 0.84 0.85 0.88 0.89 0.84 0.77 0.72 0.74 0.80 0.85 0.80 0.92 0.98 1.00 1.01 1.04 1.05 1.21 1.26 1.27 1.37 1.20 1.09 0.99 0.96 0.93 0.89 0.79 0.78 0.84 0.94 0.89 0.86 0.93 1.18 1.47 1.53 1.48
0.65 0.72 0.76 0.85 1.11 1.30 1.39 1.43 1.37 1.23 1.10 1.01 1.01 1.03 1.15 1.17 1.26 1.39 1.23 1.17 1.41 1.46 1.52 1.65 1.55 1.56 1.57 1.40 1.14 0.94 0.87 0.90 0.78 0.79 0.83 0.96 1.00 0.86 0.96 1.14 1.36 1.39 1.47
1.02 1.00 1.10 1.26 1.51 1.71 1.82 1.93 1.77 1.58 1.42 1.31 1.25 1.24 1.30 1.45 1.68 1.92 1.68 1.67 1.78 1.77 1.75 1.52 1.82 2.02 1.91 1.74 1.34 1.04 0.86 0.78 0.76 0.78 0.79 0.78 0.88 0.90 0.89 0.95 1.06 1.11 1.28
1.33 1.44 1.51 1.64 1.89 2.27 2.56 2.59 2.25 1.91 1.68 1.60 1.54 1.57 1.66 1.88 2.09 2.30 2.03 1.96 2.00 2.01 1.92 1.95 2.18 2.15 1.91 1.84 1.40 1.03 0.89 0.71 0.70 0.66 0.65 0.67 0.71 0.70 0.75 0.82 0.93 0.75 0.87
1.63 1.84 1.96 2.15 2.60 3.06 3.06 2.79 2.60 2.34 2.14 1.98 1.87 1.82 1.85 1.88 2.07 2.32 2.13 2.26 2.20 2.01 1.94 2.05 2.22 2.18 1.92 2.08 1.80 1.25 0.88 0.65 0.62 0.55 0.57 0.59 0.62 0.69 0.71 0.75 0.85 0.90 0.93
1.92 2.32 2.50 2.65 3.10 3.39 3.32 3.19 3.01 2.83 2.48 2.36 2.24 2.11 1.92 1.84 1.97 2.07 2.23 2.10 2.08 2.05 2.02 2.13 2.23 2.02 1.73 2.13 2.15 1.93 1.31 0.91 0.63 0.52 0.67 0.76 0.73 0.72 0.68 0.76 0.89 1.02 1.05
1.57 1.79 2.10 2.52 2.98 3.17 3.27 3.22 3.12 3.06 2.65 2.50 2.35 2.19 2.01 1.88 1.86 1.96 2.06 2.07 1.97 1.95 1.92 2.08 2.11 2.03 1.86 1.98 2.19 2.28 1.86 1.30 0.95 0.60 0.57 0.64 0.75 0.82 0.76 0.73 0.80 0.88 0.87
1.17 1.43 1.71 2.09 2.46 2.71 2.87 2.90 2.95 2.86 2.67 2.62 2.46 2.13 1.91 1.79 1.79 1.85 1.87 1.85 1.84 1.78 1.73 1.68 1.79 2.08 2.09 1.87 2.01 2.06 1.99 1.80 1.53 0.99 0.73 0.72 0.76 0.77 0.80 0.72 0.67 0.80 0.90
1.13 1.36 1.59 1.83 2.12 2.38 2.49 2.49 2.50 2.41 2.34 2.29 2.15 1.92 1.76 1.66 1.60 1.51 1.54 1.69 1.73 1.65 1.58 1.58 1.66 1.80 1.83 1.79 1.85 1.93 1.94 1.87 1.65 1.33 0.91 0.77 0.72 0.65 0.69 0.66 0.65 0.71 0.78
1.28 1.47 1.68 1.89 2.14 2.27 2.13 1.98 1.96 1.97 2.00 1.93 1.81 1.66 1.50 1.42 1.35 1.29 1.36 1.49 1.52 1.52 1.50 1.46 1.50 1.59 1.63 1.63 1.68 1.77 1.77 1.65 1.57 1.57 1.22 0.96 0.81 0.57 0.57 0.60 0.63 0.63 0.68